• în România
  • Lista ţărilor
  • Pe 7 zile
  • Temperatura apei
  • Hartă satelitară
  • Meteo pe hartă
  • Widget-uri
  • user-avatar
    Intrare

    Meteo pe oră la Omagh

    Astăzi, 18 Februarie, Duminică

    Timp Temperatura Precipitaţii Vânt Presiune Umiditate
    00:00 +2°C° 0 mm 1 m/s 756 mmHg 95%
    01:00 +2°C° 0 mm 1 m/s 756 mmHg 95%
    02:00 +2°C° 0 mm 1 m/s 756 mmHg 95%
    03:00 +2°C° 0 mm 1 m/s 755 mmHg 96%
    04:00 +2°C° 0 mm 1 m/s 755 mmHg 96%
    05:00 +2°C° 0 mm 2 m/s 755 mmHg 96%
    06:00 +2°C° 0 mm 2 m/s 755 mmHg 96%
    07:00 +2°C° 0,1 mm 2 m/s 755 mmHg 96%
    08:00 +3°C° 0,1 mm 2 m/s 754 mmHg 96%
    09:00 +4°C° 0,1 mm 2 m/s 754 mmHg 95%
    10:00 +5°C° 0,1 mm 2 m/s 754 mmHg 95%
    11:00 +6°C° 0,1 mm 2 m/s 754 mmHg 94%
    12:00 +7°C° 0,1 mm 3 m/s 754 mmHg 94%
    13:00 +7°C° 0,2 mm 2 m/s 754 mmHg 95%
    14:00 +8°C° 0,2 mm 2 m/s 754 mmHg 95%
    15:00 +8°C° 0,2 mm 2 m/s 754 mmHg 96%
    16:00 +8°C° 0,4 mm 2 m/s 754 mmHg 96%
    17:00 +8°C° 0,4 mm 2 m/s 754 mmHg 97%
    18:00 +8°C° 0,4 mm 2 m/s 755 mmHg 98%
    19:00 +8°C° 0,1 mm 2 m/s 755 mmHg 98%
    20:00 +8°C° 0,1 mm 2 m/s 755 mmHg 98%
    21:00 +9°C° 0,1 mm 2 m/s 755 mmHg 98%
    22:00 +9°C° 0 mm 2 m/s 755 mmHg 98%
    23:00 +8°C° 0 mm 2 m/s 755 mmHg 98%

    Mâine, 19 Februarie, Luni

    Timp Temperatura Precipitaţii Vânt Presiune Umiditate
    00:00 +8°C° 0 mm 2 m/s 756 mmHg 98%
    01:00 +8°C° 0 mm 2 m/s 756 mmHg 98%
    02:00 +8°C° 0 mm 2 m/s 755 mmHg 98%
    03:00 +8°C° 0 mm 2 m/s 755 mmHg 98%
    04:00 +8°C° 0 mm 2 m/s 756 mmHg 98%
    05:00 +8°C° 0 mm 2 m/s 756 mmHg 98%
    06:00 +7°C° 0 mm 2 m/s 756 mmHg 98%
    07:00 +7°C° 0 mm 2 m/s 756 mmHg 97%
    08:00 +7°C° 0 mm 2 m/s 756 mmHg 97%
    09:00 +8°C° 0 mm 2 m/s 756 mmHg 97%
    10:00 +9°C° 0 mm 2 m/s 756 mmHg 93%
    11:00 +10°C° 0 mm 2 m/s 757 mmHg 89%
    12:00 +11°C° 0 mm 3 m/s 757 mmHg 85%
    13:00 +12°C° 0 mm 3 m/s 757 mmHg 84%
    14:00 +12°C° 0 mm 3 m/s 757 mmHg 84%
    15:00 +12°C° 0 mm 3 m/s 757 mmHg 84%
    16:00 +11°C° 0,3 mm 3 m/s 757 mmHg 86%
    17:00 +10°C° 0,3 mm 4 m/s 758 mmHg 89%
    18:00 +7°C° 0,3 mm 4 m/s 758 mmHg 91%
    19:00 +7°C° 0,1 mm 4 m/s 759 mmHg 91%
    20:00 +6°C° 0,1 mm 4 m/s 759 mmHg 91%
    21:00 +5°C° 0,1 mm 3 m/s 760 mmHg 91%
    22:00 +5°C° 0 mm 3 m/s 760 mmHg 92%
    23:00 +4°C° 0 mm 3 m/s 761 mmHg 92%

    Poimâine, 20 Februarie, Marţi

    Timp Temperatura Precipitaţii Vânt Presiune Umiditate
    00:00 +4°C° 0 mm 3 m/s 761 mmHg 93%
    01:00 +3°C° 0 mm 3 m/s 762 mmHg 93%
    02:00 +3°C° 0 mm 3 m/s 762 mmHg 92%
    03:00 +3°C° 0 mm 3 m/s 762 mmHg 92%
    04:00 +3°C° 0 mm 2 m/s 763 mmHg 91%
    05:00 +3°C° 0 mm 2 m/s 763 mmHg 91%
    06:00 +3°C° 0 mm 2 m/s 764 mmHg 91%
    07:00 +3°C° 0 mm 2 m/s 764 mmHg 90%
    08:00 +3°C° 0 mm 2 m/s 765 mmHg 89%
    09:00 +4°C° 0 mm 2 m/s 765 mmHg 88%
    10:00 +5°C° 0 mm 2 m/s 766 mmHg 82%
    11:00 +5°C° 0 mm 3 m/s 766 mmHg 76%
    12:00 +8°C° 0 mm 3 m/s 766 mmHg 70%
    13:00 +8°C° 0 mm 3 m/s 766 mmHg 68%
    14:00 +8°C° 0 mm 3 m/s 766 mmHg 67%
    15:00 +8°C° 0 mm 3 m/s 766 mmHg 65%
    16:00 +7°C° 0 mm 2 m/s 766 mmHg 72%
    17:00 +5°C° 0 mm 2 m/s 766 mmHg 78%
    18:00 +4°C° 0 mm 2 m/s 767 mmHg 85%
    19:00 +4°C° 0 mm 1 m/s 767 mmHg 87%
    20:00 +4°C° 0 mm 1 m/s 767 mmHg 89%
    21:00 +3°C° 0 mm 1 m/s 767 mmHg 91%
    22:00 +3°C° 0 mm 1 m/s 767 mmHg 91%
    23:00 +2°C° 0 mm 1 m/s 767 mmHg 92%

    21 Februarie, Miercuri

    Timp Temperatura Precipitaţii Vânt Presiune Umiditate
    00:00 +2°C° 0 mm 1 m/s 767 mmHg 92%
    01:00 +2°C° 0 mm 1 m/s 767 mmHg 92%
    02:00 +2°C° 0 mm 1 m/s 767 mmHg 92%
    03:00 +2°C° 0 mm 1 m/s 766 mmHg 92%
    04:00 +1°C° 0 mm 1 m/s 766 mmHg 92%
    05:00 +1°C° 0 mm 1 m/s 766 mmHg 92%
    06:00 +1°C° 0 mm 1 m/s 766 mmHg 93%
    07:00 +2°C° 0 mm 1 m/s 766 mmHg 90%
    08:00 +2°C° 0 mm 1 m/s 766 mmHg 88%
    09:00 +3°C° 0 mm 1 m/s 766 mmHg 86%
    10:00 +5°C° 0 mm 1 m/s 765 mmHg 81%
    11:00 +5°C° 0 mm 2 m/s 765 mmHg 76%
    12:00 +7°C° 0 mm 2 m/s 765 mmHg 71%
    13:00 +7°C° 0 mm 3 m/s 764 mmHg 71%
    14:00 +7°C° 0 mm 3 m/s 764 mmHg 70%
    15:00 +8°C° 0 mm 3 m/s 763 mmHg 69%
    16:00 +5°C° 0 mm 3 m/s 763 mmHg 76%
    17:00 +5°C° 0 mm 2 m/s 763 mmHg 83%
    18:00 +3°C° 0 mm 2 m/s 763 mmHg 89%
    19:00 +3°C° 0 mm 2 m/s 763 mmHg 91%
    20:00 +2°C° 0 mm 2 m/s 763 mmHg 92%
    21:00 +2°C° 0 mm 2 m/s 762 mmHg 94%
    22:00 +1°C° 0 mm 2 m/s 762 mmHg 95%
    23:00 +1°C° 0 mm 2 m/s 762 mmHg 95%

    22 Februarie, Joi

    Timp Temperatura Precipitaţii Vânt Presiune Umiditate
    00:00 +1°C° 0 mm 2 m/s 762 mmHg 96%
    01:00 -1°C° 0 mm 2 m/s 762 mmHg 96%
    02:00 -1°C° 0 mm 2 m/s 761 mmHg 96%
    03:00 +1°C° 0 mm 1 m/s 761 mmHg 96%
    04:00 +1°C° 0 mm 1 m/s 761 mmHg 96%
    05:00 +1°C° 0 mm 1 m/s 761 mmHg 96%
    06:00 +1°C° 0 mm 1 m/s 760 mmHg 97%
    07:00 +1°C° 0 mm 2 m/s 760 mmHg 94%
    08:00 +1°C° 0 mm 2 m/s 760 mmHg 92%
    09:00 +2°C° 0 mm 2 m/s 760 mmHg 90%
    10:00 +2°C° 0 mm 3 m/s 760 mmHg 85%
    11:00 +4°C° 0 mm 3 m/s 760 mmHg 79%
    12:00 +5°C° 0 mm 4 m/s 760 mmHg 73%
    13:00 +5°C° 0 mm 4 m/s 760 mmHg 72%
    14:00 +5°C° 0 mm 4 m/s 759 mmHg 71%
    15:00 +5°C° 0 mm 4 m/s 759 mmHg 71%
    16:00 +4°C° 0 mm 3 m/s 759 mmHg 76%
    17:00 +3°C° 0 mm 3 m/s 759 mmHg 81%
    18:00 +2°C° 0 mm 3 m/s 759 mmHg 87%
    19:00 +2°C° 0 mm 2 m/s 759 mmHg 89%
    20:00 +1°C° 0 mm 2 m/s 759 mmHg 91%
    21:00 +1°C° 0 mm 2 m/s 759 mmHg 92%
    22:00 -1°C° 0 mm 2 m/s 759 mmHg 93%
    23:00 -1°C° 0 mm 2 m/s 759 mmHg 93%

    23 Februarie, Vineri

    Timp Temperatura Precipitaţii Vânt Presiune Umiditate
    00:00 -1°C° 0 mm 2 m/s 759 mmHg 94%
    01:00 -1°C° 0 mm 2 m/s 759 mmHg 94%
    02:00 -1°C° 0 mm 2 m/s 758 mmHg 94%
    03:00 -2°C° 0 mm 2 m/s 758 mmHg 94%
    04:00 -2°C° 0 mm 2 m/s 758 mmHg 94%
    05:00 -2°C° 0 mm 2 m/s 758 mmHg 94%
    06:00 -2°C° 0 mm 2 m/s 758 mmHg 94%
    07:00 -1°C° 0 mm 2 m/s 759 mmHg 90%
    08:00 +1°C° 0 mm 2 m/s 759 mmHg 87%
    09:00 0°C° 0 mm 3 m/s 759 mmHg 83%
    10:00 +2°C° 0 mm 3 m/s 759 mmHg 78%
    11:00 +3°C° 0 mm 4 m/s 759 mmHg 72%
    12:00 +3°C° 0 mm 5 m/s 759 mmHg 66%
    13:00 +3°C° 0 mm 5 m/s 759 mmHg 66%
    14:00 +3°C° 0 mm 5 m/s 759 mmHg 65%
    15:00 +4°C° 0 mm 4 m/s 759 mmHg 65%
    16:00 +3°C° 0 mm 4 m/s 759 mmHg 70%
    17:00 +2°C° 0 mm 3 m/s 759 mmHg 75%
    18:00 0°C° 0 mm 3 m/s 759 mmHg 81%
    19:00 0°C° 0 mm 3 m/s 759 mmHg 82%
    20:00 -1°C° 0 mm 3 m/s 759 mmHg 84%
    21:00 -1°C° 0 mm 3 m/s 759 mmHg 85%
    22:00 -1°C° 0 mm 3 m/s 759 mmHg 86%
    23:00 -1°C° 0 mm 3 m/s 759 mmHg 87%
    Arată mai mult